Regional Weather Roundup
Issued by NWS

Home | Current Version | Previous Version | Text Only | Print | Product List | Glossary On
Versions: 1 2 3 4 5 6 7 8 9 10 11 12 13 14 15 16 17 18 19 20 21 22 23 24 25 26 27 28 29 30 31 32 33 34 35 36 37 38 39 40 41 42 43 44 45 46 47 48 49 50
788
ASUS44 KMEG 131610
RWRTN
TENNESSEE HOURLY STATE WEATHER ROUNDUP
NATIONAL WEATHER SERVICE MEMPHIS TN
1000 AM CST FRI DEC 13 2019

TNZ002-004-019-021-049-052-054-088>092-131700-
WEST TENNESSEE

CITY           SKY/WX    TMP DP  RH WIND       PRES   REMARKS
MEMPHIS INTL   LGT RAIN  46  45  96 S5        30.00F FOG
NWS MEMPHIS      N/A     45 N/A N/A MISG        N/A
JACKSON        CLOUDY    46  44  93 S7        30.02S FOG
DYERSBURG      CLOUDY    45  43  93 CALM      30.02R
COVINGTON      FOG       45  45 100 SE3       30.01F VSB 3/4
UNION CITY     CLOUDY    43  39  87 CALM      30.00F
BOLIVAR        CLOUDY    46  45  93 S3        30.00S FOG
PARIS          CLOUDY    46  43  87 S5        30.00S
HUNTINGDON     FOG       46  45  93 CALM      30.00F VSB 1
LEXINGTON      CLOUDY    46  45  93 S6        30.01S
SELMER         CLOUDY    45  43  93 VRB5      29.99F
SAVANNAH       CLOUDY    46  45  93 S5        29.99F
$$

TNZ008-025-027-028-033-062-065-066-131700-
NORTH MIDDLE TENNESSEE

CITY           SKY/WX    TMP DP  RH WIND       PRES   REMARKS
NASHVILLE      FOG       46  42  86 SE6       30.04F VSB 1
DICKSON        CLOUDY    45  43  93 VRB5      30.00F FOG
PORTLAND       CLOUDY    45  43  93 SE3       30.02F FOG
CLARKSVILLE    CLOUDY    45  44  97 SE3       30.02F FOG
LEBANON          N/A     45  45 100 CALM      30.02F FOG
SMYRNA         LGT RAIN  45  44  97 SE5       30.04F FOG
MURFREESBORO   CLOUDY    45  45 100 CALM      30.02F FOG
COOKEVILLE     PTSUNNY   48  45  87 S6        30.02F FOG
LIVINGSTON     CLOUDY    48  43  81 SE3       30.02F
GALLATIN       CLOUDY    45  45 100 CALM      30.06F FOG
CROSSVILLE     LGT RAIN  42  40  92 E6        30.02F FOG
ROCKWOOD       CLOUDY    39  39 100 E3        30.05F FOG
$$

TNZ061-075-076-078-094-096-097-131700-
SOUTH MIDDLE TENNESSEE

CITY           SKY/WX    TMP DP  RH WIND       PRES   REMARKS
LAWRENCEBURG   CLOUDY    43  43 100 SE8       30.00F FOG
LEWISBURG      CLOUDY    45  43  93 SE5       30.02F FOG
FAYETTEVILLE   FOG       45  45 100 VRB5      30.02S VSB 3/4
TULLAHOMA      CLOUDY    45  43  93 S5        30.01F FOG
WINCHESTER     CLOUDY    45  43  93 SE7       30.02F
MCMINNVILLE    CLOUDY    48  45  87 VRB3      30.02F
COLUMBIA       CLOUDY    45  45 100 SE3       30.00F FOG
SHELBYVILLE    CLOUDY    45  43  93 SE3       30.02F FOG
$$

TNZ017-018-042-046-047-131700-
NORTHEAST TENNESSEE

CITY           SKY/WX    TMP DP  RH WIND       PRES   REMARKS
TRI CITIES     CLOUDY    44  41  89 E5        30.09F
ELIZABETHTON   CLOUDY    50  45  81 E5        30.09F
GREENEVILLE    CLOUDY    43  41  93 CALM      30.06F
$$

TNZ012-013-036-069-073-074-131700-
CENTRAL EAST TENNESSEE

CITY           SKY/WX    TMP DP  RH WIND       PRES   REMARKS
KNOXVILLE      CLOUDY    43  39  86 N6        30.06F
OAK RIDGE      LGT RAIN  42  39  89 E5        30.09F FOG
DOWNTOWN KNOXV CLOUDY    45  41  87 VRB5      30.07F
GATLINBURG     PTSUNNY   41  39  93 CALM      30.07F
MORRISTOWN     PTSUNNY   45  41  87 E3        30.06S
JACKSBORO      CLOUDY    41  37  87 CALM      30.11F
$$

TNZ083-085-099-131700-
SOUTHEAST TENNESSEE

CITY           SKY/WX    TMP DP  RH WIND       PRES   REMARKS
CHATTANOOGA    LGT RAIN  43  41  93 NE6       30.07F FOG
DAYTON         CLOUDY    43  41  93 CALM      30.07F FOG
$$

SKY/WX REPORTED AS FAIR MEANS FEW OR NO CLOUDS BELOW
12 THOUSAND FEET.





USA.gov is the U.S. government's official web portal to all federal, state and local government web resources and services.